FLOCK 2K-16 (42889 NORAD) Tracking and Keplerian Element Data

This shows tracking and keplerian element data for the satellite.

Feedback or suggestion? Click here.




ElementValue
Catalog42889
NameFLOCK 2K-16
Epoch Orbit18528
Epoch Day306.85395254
Epoch Year2020
RAAN167.147
Inclination96.8738
Eccentricity0.0010156
Argument of Perigee166.5791
Mean Anonmoly193.573
Mean Motion15.42426537
Decay Rate0.00010875
L11 42889U 17042BS 20306.85395254 .00010875 00000-0 25286-3 0 9994
L22 42889 96.8738 167.1470 0010156 166.5791 193.5730 15.42426537185289

Live tracking and technical data element details for FLOCK 2K-16 (NORAD 42889). FLOCK 2K-16 can be tracked NOW for your location showing map with azimuth and elevation plus other details from your city location.

Track the satellite on the map from your city or location and see movement details for azimuth, elevation, latitude, longitude, range, height, and movement on the map or in text.







IsCatalogInMostPopularTable: catalog: 42889, numindb: 520
Update: records affected: 1



GetName: 42889 FLOCK 2K-16

Hit Count: updated at: Tue, 28 Sep 2021 17:02:26 GMT